Location: Hradec Kralove
(50.2170°N, 15.8330°E)
Time: 03:49:11
(UTC+01:00)

N. Korean satellite - Pass Details

Date: 10 December 2022
Orbit: 407 x 441 km, 97.3° (Epoch: 05 February)

Event Time Altitude Azimuth Distance (km) Brightness Sun altitude
Rises 05:09:19 0° 16° (NNE) 2,507 10.3 -23.7°
Reaches altitude 10° 05:11:25 10° 21° (NNE) 1,619 9.3 -23.3°
Maximum altitude 05:14:51 56° 100° (E) 549 7.0 -22.8°
Drops below altitude 10° 05:18:11 10° 180° (S) 1,574 9.2 -22.3°
Sets 05:20:12 0° 185° (S) 2,429 10.2 -21.9°
